Location: Grand Lay
(47.3253°N, 0.9468°E)
Time: 19:02:13
(UTC+00:00)

Gbstr 26 Del rocket - Pass Details

Date: 18 April 2026
Orbit: 490 x 1216 km, 51.8° (Epoch: 13 May)

Event Time Altitude Azimuth Distance (km) Brightness Sun altitude
Exits shadow 02:25:08 34° 323° (NW) 838 3.8 -23.0°
Maximum altitude 02:26:13 44° 8° (N) 691 3.6 -22.9°
Drops below altitude 10° 02:29:47 10° 82° (E) 1,684 5.9 -22.5°
Sets 02:32:02 0° 89° (E) 2,589 6.9 -22.3°
